This demonstration page uses our WeatherBlox Daily Observations layout. Learn more.

Left ArrowRight Arrow

39.51506, -84.39828

Hourly Observations for March 25, 2021

Temp ( °F °C ) Dew Point ( °F °C ) Humidity (%) Winds ( mph kmh ) Pressure ( in mb ) Visibility ( mi km ) Precip ( " mm )
12:15 am 00:15 Clear 51 10.3 47 8.6 89 89 N N/A 29.93 1013 10 16 N/A
12:35 am 00:35 Clear 50 10.1 48 9 93 93 N N/A 29.93 1013 10 16 N/A
12:55 am 00:55 Clear 47 8.6 47 8.4 99 99 N 8 13 29.94 1014 10 16 N/A
1:15 am 01:15 Clear 50 10.2 46 7.7 85 85 N N/A 29.95 1014 10 16 N/A
1:35 am 01:35 Clear 50 10.1 46 7.7 85 85 N N/A 29.95 1014 10 16 N/A
1:55 am 01:55 Clear 49 9.3 46 7.7 90 90 N N/A 29.95 1014 10 16 N/A
2:15 am 02:15 Clear 49 9.5 47 8.3 92 92 ENE 3 6 29.95 1014 10 16 N/A
2:35 am 02:35 Clear 48 8.7 46 7.6 93 93 N 3 6 29.96 1015 10 16 N/A
2:55 am 02:55 Clear 47 8.3 45 7.2 93 93 N 3 6 29.96 1015 10 16 N/A
3:15 am 03:15 Clear 45 7.2 44 6.8 97 97 N 3 6 29.96 1014 10 16 N/A
3:35 am 03:35 Clear 44 6.5 43 6.3 99 99 N N/A 29.97 1015 10 16 N/A
3:55 am 03:55 Clear 44 6.7 44 6.5 99 99 NNE 3 6 29.97 1015 10 16 N/A
4:15 am 04:15 Clear 45 7 45 7 100 100 NE 5 7 29.94 1014 10 16 N/A
4:35 am 04:35 Clear 44 6.9 44 6.6 98 98 NNE 5 7 29.94 1014 10 16 N/A
4:55 am 04:55 Clear 43 6 41 5 93 93 NNE 5 7 29.94 1014 10 16 N/A
5:15 am 05:15 Clear 44 6.6 43 6.1 97 97 N N/A 29.95 1014 10 16 N/A
5:35 am 05:35 Clear 43 6 43 6 100 100 NNW 3 6 29.96 1015 10 16 N/A
5:55 am 05:55 Clear 43 6 N/A N/A NNW 3 6 29.97 1015 10 16 N/A
6:15 am 06:15 Clear 43 6 43 6 100 100 N 6 9 29.96 1015 10 16 N/A
6:35 am 06:35 Clear 44 6.5 44 6.4 99 99 NE 3 6 29.98 1015 10 16 N/A
6:55 am 06:55 Clear 43 6 43 6 100 100 NNE 3 6 29.98 1015 10 16 N/A
7:15 am 07:15 Clear 42 5.8 42 5.7 99 99 N 7 11 29.98 1015 10 16 N/A
7:35 am 07:35 Sunny 43 6 N/A N/A ENE 5 7 29.98 1015 10 16 N/A
7:55 am 07:55 Sunny 45 7 N/A N/A ENE 6 9 29.99 1015 10 16 N/A
8:15 am 08:15 Sunny 45 7 N/A N/A NNW 6 9 29.99 1015 10 16 N/A
8:35 am 08:35 Sunny 45 7.1 45 7.1 100 100 N 3 6 29.98 1015 10 16 N/A
8:55 am 08:55 Sunny 47 8.3 46 8 98 98 NNE 7 11 29.95 1014 10 16 N/A
9:15 am 09:15 Sunny 49 9.6 47 8.4 92 92 NE 6 9 29.96 1015 10 16 N/A
9:35 am 09:35 Sunny 51 10.7 48 8.9 89 89 NNE 3 6 29.98 1015 10 16 N/A
9:55 am 09:55 Sunny 52 11.1 48 9.1 88 88 N N/A 29.98 1015 10 16 N/A
10:15 am 10:15 Sunny 53 11.9 49 9.6 86 86 NNE 5 7 29.97 1015 10 16 N/A
10:35 am 10:35 Sunny 54 12.4 49 9.5 83 83 NNE 5 7 29.97 1015 10 16 N/A
10:55 am 10:55 Sunny 55 12.8 49 9.6 81 81 NE 5 7 29.96 1015 10 16 N/A
11:15 am 11:15 Sunny 56 13.2 49 9.7 80 80 NE 6 9 29.95 1014 10 16 N/A
11:35 am 11:35 Sunny 57 13.8 50 9.8 77 77 NE 5 7 29.94 1014 10 16 N/A
11:55 am 11:55 Mostly Cloudy 58 14.4 50 9.8 74 74 NE 6 9 29.94 1014 10 16 N/A
12:15 pm 12:15 Sunny 59 15 50 10.2 73 73 NE 7 11 29.92 1013 10 16 N/A
12:35 pm 12:35 Sunny 61 16.1 51 10.7 71 71 NNE 8 13 29.89 1012 10 16 N/A
12:55 pm 12:55 Partly Cloudy 63 17.3 51 10.8 66 66 NE 7 11 29.87 1012 10 16 N/A
1:15 pm 13:15 Mostly Cloudy 64 17.9 52 10.9 64 64 NNE 3 6 29.87 1011 10 16 N/A
1:35 pm 13:35 Cloudy with Thunderstorms 63 17.2 53 11.8 71 71 S 8 13 29.89 1012 7 11 0.01 0.25
1:55 pm 13:55 Cloudy with Heavy Rain 59 15 56 13.4 90 90 SSW 12 19 29.91 1013 4 6 0.07 1.78
2:15 pm 14:15 Cloudy with Light Rain 58 14.2 57 14.1 99 99 SW 3 6 29.89 1012 4 6 0.04 1.02
2:35 pm 14:35 Cloudy with Light Rain 58 14.5 58 14.4 99 99 N N/A 29.88 1012 10 16 0.05 1.27
2:55 pm 14:55 Cloudy with Light Rain 59 15 57 14 94 94 NNE 5 7 29.86 1011 7 11 0.06 1.52
3:15 pm 15:15 Cloudy with Light Rain 59 15 N/A N/A NNE 6 9 29.84 1010 10 16 N/A
3:35 pm 15:35 Cloudy 59 15 59 14.8 99 99 NE 6 9 29.84 1010 10 16 N/A
3:55 pm 15:55 Cloudy 59 15 58 14.7 98 98 ENE 8 13 29.82 1010 10 16 N/A
4:15 pm 16:15 Cloudy 60 15.5 59 15.2 98 98 NE 6 9 29.81 1009 10 16 N/A
4:35 pm 16:35 Cloudy 61 15.9 59 15.2 96 96 NE 8 13 29.78 1009 10 16 N/A
4:55 pm 16:55 Mostly Cloudy 62 16.8 60 15.7 93 93 E 13 20 29.73 1007 10 16 N/A
5:15 pm 17:15 Cloudy 63 17.2 60 15.4 89 89 E 13 20 29.71 1006 10 16 N/A
5:35 pm 17:35 Mostly Cloudy 65 18.1 60 15.3 84 84 ESE 10 17 29.69 1005 10 16 N/A
5:55 pm 17:55 Cloudy 64 17.8 58 14.4 81 81 SE 12 19 29.71 1006 10 16 N/A
6:15 pm 18:15 Cloudy 64 17.7 58 14.2 80 80 SE 8 13 29.72 1006 10 16 N/A
6:35 pm 18:35 Cloudy 64 17.8 58 14.3 80 80 SE 8 13 29.71 1006 10 16 N/A
6:55 pm 18:55 Cloudy 64 17.7 57 13.8 78 78 ESE 7 11 29.70 1006 10 16 N/A
7:15 pm 19:15 Cloudy 64 17.6 57 14 80 80 ESE 7 11 29.69 1005 10 16 N/A
7:35 pm 19:35 Cloudy 63 17.3 58 14.2 82 82 ESE 6 9 29.68 1005 10 16 N/A
7:55 pm 19:55 Cloudy 63 17.2 58 14.2 83 83 ESE 6 9 29.67 1005 10 16 N/A
8:15 pm 20:15 Cloudy 63 17.2 58 14.3 83 83 ESE 5 7 29.67 1005 10 16 N/A
8:35 pm 20:35 Cloudy 63 17.2 58 14.5 84 84 SE 6 9 29.65 1004 10 16 N/A
8:55 pm 20:55 Cloudy with Rain 62 16.9 59 14.9 88 88 SE 3 6 29.64 1004 5 8 0.05 1.27
9:15 pm 21:15 Cloudy with Light Rain 61 16 60 15.6 97 97 E 5 7 29.62 1003 10 16 0.02 0.51
9:35 pm 21:35 Cloudy with Rain 61 16 60 15.8 99 99 ESE 7 11 29.60 1003 3 5 0.07 1.78
9:55 pm 21:55 Cloudy 61 16.2 60 15.7 97 97 S 3 6 29.59 1002 10 16 0.07 1.78
10:15 pm 22:15 Cloudy 62 16.7 61 15.9 95 95 SSE 8 13 29.57 1001 10 16 N/A
10:35 pm 22:35 Cloudy with Nearby Thunderstorms 63 17.4 61 16.2 93 93 S 10 17 29.56 1001 10 16 N/A
10:55 pm 22:55 Cloudy 64 17.8 62 16.4 92 92 S 18 30 29.55 1001 10 16 N/A
11:15 pm 23:15 Cloudy 65 18.1 62 16.5 90 90 S 16 26 29.54 1000 10 16 N/A
11:35 pm 23:35 Cloudy 65 18.2 62 16.4 89 89 S 16 26 29.52 1000 10 16 N/A
11:55 pm 23:55 Cloudy with Light Rain 65 18.2 62 16.4 89 89 SSE 14 22 29.50 999 10 16 N/A

Powered by AerisWeather